Tracking 27079 objects as of 23-Mar-2023
HD Live streaming from Space Station
objects crossing your sky now

COSMOS 970 DEB

Track COSMOS 970 DEB now!
10-day predictions


NORAD ID: 10576
Int'l Code: 1977-121T
Perigee: 922.1 km
Apogee: 1,118.9 km
Inclination: 65.8 °
Period: 105.4 minutes
Semi major axis: 7391 km
RCS: 0.1037 m2 (medium)
Launch date: December 21, 1977
Source: Commonwealth of Independent States (former USSR) (CIS)
Launch site: TYURATAM MISSILE AND SPACE COMPLEX (TTMTR)

Note: This is SATELLITE DEBRIS
Your satellite tracking list
Your tracking list is empty




NASA's NSSDC Master Catalog

Two Line Element Set (TLE):
1 10576U 77121T   23081.55549493  .00000118  00000-0  22454-3 0  9995
2 10576  65.8381 188.6496 0133162  33.1569  51.8363 13.66172272253471
Source of the keplerian elements: AFSPC